Weather in Sharm-El-Sheikh

Egypt     27°57′30″N   34°21′43″E
temp.,
°C
wind,
m/s
gust,
m/s
humid.,
%
clouds,
%
prec.,
mm/h
press.,
hPa
HPBL,
m
26 june, sun
sun2623:00+28s12370 0.0 100634
02:00+25ne01500 0.0 100712
05:00+24nnw01550 0.0 100814
08:00+28se11400 0.0 1009542
11:00+32se33290 0.0 10081175
14:00+33se32270 0.0 10071286
17:00+34ese11230 0.0 1006881
20:00+30ene11280 0.0 100716
27 june, mon
mon2723:00+29nnw33210 0.0 100716
02:00+27e01280 0.0 100711
05:00+25n11310 0.0 100811
08:00+31e11200 0.0 1008570
11:00+34se33190 0.0 10081324
14:00+36s14180 0.0 10061568
17:00+35nw13170 0.0 10051078
20:00+31n01210 0.0 100611
28 june, tue
tue2823:00+30nw11220 0.0 100611
02:00+26s11340 0.0 100611
05:00+25wnw01320 0.0 100611
08:00+30s22290 0.0 1007582
11:00+34sse24230 0.0 10051380
14:00+35nw14190 0.0 10041370
17:00+35nw13160 0.0 1003971
20:00+30nw11230 0.0 100515
29 june, wed
wed2923:00+28ne00260 0.0 100611
02:00+27wnw11250 0.0 100511
05:00+25ssw11310 0.0 100611
08:00+31sse11210 0.0 1006648
11:00+34sse33200 0.0 10061485
14:00+35sw14210 0.0 10041451
17:00+35wnw34160 0.0 10031168
20:00+31wnw32220 0.0 100427
30 june, thu
thu3023:00+29wnw22250 0.0 100519
02:00+27n01290 0.0 100512
05:00+26n11334 0.0 100611
08:00+31se11230 0.0 1006700
11:00+34sse33220 0.0 10061649
14:00+36wsw24210 0.0 10041649
17:00+35wnw34200 0.0 10041077
20:00+32wnw33220 0.0 100423